Grafton, IL

8:30 AM CST on January 22, 2017 (GMT -0600)
Saint Charles County Smartt

Weather History for KSET - May, 2013

Change the Weather History Date:

Tuesday, May 7, 2013

  Actual Average (KSTL) Record (KSTL)
Temperature  
Mean Temperature 67 °F -  
Max Temperature 78 °F 74 °F 92 °F (1940)
Min Temperature 57 °F 53 °F 35 °F (1976)
Cooling Degree Days 2    
Growing Degree Days 17 (Base 50)    
Moisture  
Dew Point 56 °F    
Average Humidity 73    
Maximum Humidity 93    
Minimum Humidity 42    
Precipitation  
Precipitation 0.00 in - - ()
Sea Level Pressure  
Sea Level Pressure 29.99 in    
Wind  
Wind Speed 1 mph (NE)    
Max Wind Speed 10 mph    
Max Gust Speed -    
Visibility 10 miles    
Events      
Averages and records for this station are not official NWS values.
T = Trace of Precipitation, MM = Missing Value Source: NWS Daily Summary

Daily Weather History Graph

Daily Weather History Graph

Search for Another Location

Airport or City:

Trip Planner

Search our weather history database for the weather conditions in past years. The results will help you decide how hot, cold, wet, or windy it might be!

Date:

Astronomy

May. 07, 2013 Rise Set
Actual Time 5:56 AM CDT 8:00 PM CDT
Civil Twilight 5:27 AM CDT 8:29 PM CDT
Nautical Twilight 4:51 AM CDT 9:05 PM CDT
Astronomical Twilight 4:12 AM CDT 9:44 PM CDT
Moon 4:29 AM CDT (5/7) 6:01 PM CDT (5/7)
Length of Visible Light 15h 02m
Length of Day
14h 03m
Waning Crescent, 5% of the Moon is Illuminated
May 7
Waning Crescent
May 9
New
May 17
First Quarter
May 24
Full
May 31
Last Quarter

Hourly Weather History & Observations

Time (CDT) Temp. Dew Point Humidity Pressure Visibility Wind Dir Wind Speed Gust Speed Precip Events Conditions
12:54 AM 59.0 °F 55.9 °F 90% 29.97 in 10.0 mi Calm Calm - N/A   Overcast
1:54 AM 59.0 °F 55.9 °F 90% 29.97 in 10.0 mi Calm Calm - N/A   Overcast
2:54 AM 59.0 °F 55.9 °F 90% 29.97 in 10.0 mi Calm Calm - N/A   Overcast
3:54 AM 59.0 °F 55.9 °F 90% 29.97 in 10.0 mi Calm Calm - N/A   Overcast
4:54 AM 59.0 °F 55.9 °F 90% 29.97 in 10.0 mi Calm Calm - N/A   Overcast
5:54 AM 57.9 °F 55.0 °F 90% 29.99 in 10.0 mi Calm Calm - N/A   Overcast
6:54 AM 57.9 °F 55.9 °F 93% 30.00 in 10.0 mi Calm Calm - N/A   Overcast
7:54 AM 63.0 °F 55.0 °F 75% 30.01 in 10.0 mi Calm Calm - N/A   Clear
8:54 AM 64.9 °F 57.0 °F 75% 30.02 in 10.0 mi ESE 3.5 mph - N/A   Clear
9:54 AM 70.0 °F 57.9 °F 65% 30.03 in 10.0 mi Calm Calm - N/A   Clear
10:54 AM 73.0 °F 55.9 °F 55% 30.03 in 10.0 mi ENE 3.5 mph - N/A   Clear
11:54 AM 73.9 °F 55.9 °F 53% 30.02 in 10.0 mi NE 5.8 mph - N/A   Clear
1:54 PM 73.0 °F 55.0 °F 53% 30.00 in 10.0 mi NW 3.5 mph - N/A   Overcast
2:54 PM 75.9 °F 52.0 °F 43% 29.99 in 10.0 mi Calm Calm - N/A   Partly Cloudy
3:54 PM 75.9 °F 51.1 °F 42% 29.98 in 10.0 mi WNW 4.6 mph - N/A   Partly Cloudy
4:54 PM 77.0 °F 54.0 °F 45% 29.97 in 10.0 mi NE 4.6 mph - N/A   Overcast
5:54 PM 73.0 °F 57.0 °F 57% 29.97 in 10.0 mi East 10.4 mph - N/A   Partly Cloudy
6:54 PM 72.0 °F 57.0 °F 59% 29.97 in 10.0 mi ESE 6.9 mph - N/A   Overcast
7:54 PM 70.0 °F 59.0 °F 68% 29.97 in 10.0 mi Calm Calm - N/A   Overcast
8:54 PM 64.0 °F 57.0 °F 78% 29.98 in 10.0 mi NNE 4.6 mph - N/A   Clear
9:54 PM 61.0 °F 57.0 °F 87% 29.99 in 10.0 mi Calm Calm - N/A   Clear
10:54 PM 60.1 °F 57.0 °F 90% 29.99 in 10.0 mi NW 3.5 mph - N/A   Clear
11:54 PM 57.9 °F 55.9 °F 93% 29.99 in 10.0 mi Calm Calm - N/A   Clear